Regional Weather Roundup
Issued by NWS Newport/Morehead, NC

Current Version | Previous Version | Graphics & Text | Print | Product List | Glossary Off
Versions: 1 2 3 4 5 6 7 8 9 10 11 12 13 14 15 16 17 18 19 20 21 22 23 24 25 26 27 28 29 30 31 32 33 34 35 36 37 38 39 40 41 42 43 44 45 46 47 48 49 50

000
ASUS42 KMHX 172210
RWRMHX
WEATHER ROUNDUP FOR EASTERN NORTH CAROLINA
NATIONAL WEATHER SERVICE NEWPORT/MOREHEAD CITY NC
600 PM EDT WED SEP 17 2014

NOTE: "FAIR" INDICATES FEW OR NO CLOUDS BELOW 12,000 FEET
WITH NO SIGNIFICANT WEATHER AND/OR OBSTRUCTIONS TO VISIBILITY

NCZ015>017-031-032-045>047-102-103-172300-
NORTH COAST

CITY           SKY/WX    TMP DP  RH WIND       PRES   REMARKS
EDENTON        CLOUDY    72  64  74 NE6       29.94S
ELIZABETH CITY PTSUNNY   72  60  66 NE12      29.94
KITTY HAWK     PTCLDY    73  61  65 NE7       29.92R
MANTEO         CLOUDY    72  61  68 NE14      29.93R

$$

NCZ045>047-081-094-103-104-172300-
CENTRAL COAST

CITY           SKY/WX    TMP DP  RH WIND       PRES   REMARKS
FRISCO         MOSUNNY   72  65  78 NE8G20    29.89S
SWANQUARTER      N/A     73 N/A N/A NE7G13    29.88R

$$

NCZ095-097-098-100-101-172300-
SOUTHERN COAST

CITY           SKY/WX    TMP DP  RH WIND       PRES   REMARKS
BEAUFORT       PTSUNNY   75  68  78 NE8       29.89R
CEDAR ISLAND     N/A     75 N/A N/A NE14G22   29.94S
JACKSONVILLE   CLOUDY    74  70  87 NW7       29.89S
NEWPORT        NOT AVBL
PINEY ISLAND   MOCLDY    77  66  68 NE16G22   29.90R
WILMINGTON     LGT RAIN  76  71  85 E7        29.87S


$$

NCZ011>013-027>030-043-044-078>080-089-090>093-098-172300-
COASTAL PLAIN

CITY           SKY/WX    TMP DP  RH WIND       PRES   REMARKS
AHOSKIE        PTSUNNY   71  62  71 N3        29.96R
CLINTON        MOSUNNY   78  71  77 NE3       29.90R
ELIZABETHTOWN  SUNNY     81  69  66 CALM      29.88S
GOLDSBORO      MOSUNNY   77  73  87 E2        29.90S
GREENVILLE     CLOUDY    75  63  64 NE9       29.95S
HAVELOCK       PTSUNNY   75  66  73 NE12      29.91R
KENANSVILLE    CLOUDY    76  67  73 CALM      29.91R
KINSTON        MOSUNNY   75  66  73 E8        29.92R
NEW BERN       PTSUNNY   78  67  68 E7        29.92R
RICHLANDS      MOSUNNY   70  63  78 NE12      29.90F
ROANOKE RAPIDS NOT AVBL
ROCKY MOUNT    SUNNY     76  65  68 NE6       29.93S
WASHINGTON     MOSUNNY   73  64  71 NE9       29.94R
WHITEVILLE     SUNNY     81  67  63 W3        29.87S

$$

AMZ130-135-150-152-154-156-158-170-250-252-270-ANZ085-086-088-633-658-670-172300-
MARINE OBSERVATIONS

STATION/POSITION TIME  TEMP    WIND        PRES    WAVE   SWELL
                       AIR SEA DIR/SP/G            HT/PER HT/PER
                 (UTC) (F)     (DEG/KT/KT) (MB)    (FT/S) (FT/S)
CHESAPEAKE LIGHT 2100   71      50/ 13/ 14 1014.5
BUOY 44014       2200   73 78   30/ 14/ 16 1013.0    5/13   5/13
DUCK             2200   72 76   50/ 15/ 17 1013.0
2E DUCK          2200                        N/A     5/14   3/14
OREGON INLET     2200   73 76   30/ 15/ 19 1012.8
BUOY 44095       2200      76                N/A     6/13   3/13
20E OREGON INLET NOT AVBL
HATTERAS CG      2200   75 79   40/ 13/ 17 1012.6
DIAMOND BUOY     2200   76      20/ 16/ 21 1011.2    6/14   3/14
CAPE LOOKOUT     2100   75      40/ 12/ 13 1011.9
BEAUFORT LAB     2200   75 80   50/  8/ 15 1011.7
30 SE NEW RIVER  2200   77 83   50/ 10/ 14 1011.9    4/14   3/14
5 SE WRIGHTSVILL 2100   76 82   60/ 10/ 12   N/A
BUOY 41002       2127   78 82  250/  6/  8 1010.1    6/11   7/11
BUOY 41004       2200   80 83   10/  6/  8 1011.0    3/14   3/14

$$


USA.gov is the U.S. government's official web portal to all federal, state and local government web resources and services.